1495490401.01,28724,18.06,74094.0,1.29,-10.19,-11.11,0,*75
1495490402.24,28725,18.06,74088.5,1.29,-10.27,-11.01,0,*78
1495490403.46,28726,18.06,74092.0,1.29,-10.27,-11.11,0,*7A
1495490404.7,28727,18.06,74092.0,1.29,-10.19,-11.01,0,*77
1495490405.92,28728,18.06,74094.5,1.29,-10.27,-11.11,0,*74
1495490407.15,28729,18.06,74090.5,1.29,-10.19,-11.01,0,*79
1495490408.36,28730,18.06,74092.5,1.27,-10.15,-10.97,0,*7D
1495490409.59,28731,18.06,74098.8,1.29,-10.15,-10.97,0,*72
1495490410.8,28732,18.06,74094.5,1.27,-10.15,-11.01,0,*71
1495490412.03,28733,18.06,74096.5,1.29,-10.15,-10.97,0,*70
1495490413.26,28734,18.06,74092.0,1.29,-10.15,-10.89,0,*78
1495490414.5,28735,18.06,74092.8,1.29,-10.15,-10.97,0,*76
1495490415.71,28736,18.06,74092.3,1.27,-10.19,-10.97,0,*77
1495490416.93,28737,18.06,74094.8,1.29,-10.27,-11.01,0,*7B
1495490418.16,28738,18.06,74094.0,1.29,-10.27,-11.11,0,*75
1495490419.38,28739,18.06,74092.0,1.29,-10.27,-11.11,0,*74
1495490420.61,28740,18.06,74092.5,1.29,-10.19,-11.01,0,*76
1495490421.82,28741,18.06,74092.0,1.27,-10.15,-10.89,0,*74
1495490423.07,28742,18.06,74094.3,1.29,-10.01,-10.71,0,*7B
1495490424.31,28743,18.06,74092.0,1.29,-10.01,-10.71,0,*7A
1495490425.56,28744,18.06,74094.3,1.29,-10.01,-10.71,0,*7D
1495490426.81,28745,18.06,74090.8,1.29,-10.01,-10.71,0,*7C
1495490428.04,28746,18.06,74094.0,1.29,-10.15,-10.97,0,*72
1495490429.28,28747,18.06,74092.8,1.29,-10.15,-10.97,0,*73
1495490430.47,28748,18.06,74090.0,1.31,-10.09,-10.93,0,*7C
1495490431.7,28749,18.06,74090.3,1.29,-10.27,-11.01,0,*72
1495490432.92,28750,18.06,74094.8,1.29,-10.27,-11.11,0,*7B
1495490434.15,28751,18.06,74092.8,1.29,-10.19,-11.11,0,*77
1495490435.38,28752,18.06,74090.8,1.29,-10.27,-11.11,0,*79
1495490436.6,28753,18.06,74094.3,1.29,-10.35,-11.11,0,*7B
1495490437.83,28754,18.06,74092.5,1.29,-10.45,-11.15,0,*7F
1495490439.06,28755,18.0,74090.3,1.29,-10.19,-10.89,0,*73
1495490440.28,28756,18.06,74094.0,1.29,-10.27,-11.01,0,*7C
1495490441.51,28757,18.06,74090.3,1.29,-10.31,-11.11,0,*7B
1495490442.74,28758,18.06,74090.3,1.29,-10.19,-10.97,0,*71
1495490443.97,28759,18.06,74088.8,1.29,-10.01,-10.89,0,*76
1495490445.18,28760,18.06,74092.3,1.29,-10.05,-10.85,0,*74
1495490446.41,28761,18.06,74088.8,1.29,-10.15,-10.89,0,*78
1495490447.66,28762,18.06,74088.5,1.29,-10.01,-10.75,0,*7D
1495490448.86,28763,18.06,74090.3,1.27,-9.79,-10.57,0,*45
1495490450.1,28764,18.06,74092.8,1.29,-9.89,-10.63,0,*44
1495490451.32,28765,18.06,74092.5,1.27,-9.93,-10.63,0,*40
1495490452.54,28766,18.06,74094.0,1.29,-9.79,-10.57,0,*4E
1495490453.77,28767,18.06,74088.3,1.29,-9.79,-10.57,0,*4F
1495490455.02,28768,18.06,74090.8,1.29,-9.79,-10.63,0,*47
1495490456.26,28769,18.06,74092.0,1.29,-9.93,-10.71,0,*41
1495490457.48,28770,18.06,74092.8,1.27,-9.79,-10.75,0,*47
1495490458.73,28771,18.06,74090.8,1.29,-9.79,-10.75,0,*48
1495490459.94,28772,18.06,74094.3,1.29,-9.89,-10.85,0,*4B
1495490461.16,28773,18.06,74094.3,1.27,-9.79,-10.75,0,*44
1495490462.39,28774,18.06,74096.5,1.27,-9.79,-10.75,0,*43
1495490463.61,28775,18.06,74096.5,1.29,-9.79,-10.85,0,*43
1495490464.86,28776,18.0,74094.8,1.29,-9.75,-10.75,0,*43
1495490466.1,28777,18.06,74092.3,1.29,-9.67,-10.63,0,*46
1495490467.37,28778,18.0,74092.0,1.29,-9.61,-10.71,0,*4C
1495490468.61,28779,18.0,74094.0,1.29,-9.61,-10.85,0,*46
1495490469.84,28780,18.06,74094.3,1.29,-9.53,-10.85,0,*41
1495490471.08,28781,18.06,74092.5,1.29,-9.61,-10.85,0,*41
1495490472.32,28782,18.06,74098.0,1.27,-9.53,-10.75,0,*42
1495490473.52,28783,18.06,74096.8,1.27,-9.67,-10.89,0,*47
1495490474.74,28784,18.06,74094.8,1.29,-9.75,-11.11,0,*4D
1495490475.95,28785,18.06,74094.3,1.29,-9.89,-11.15,0,*4B
1495490477.16,28786,18.0,74092.8,1.29,-9.89,-11.19,0,*44
1495490478.37,28787,18.06,74092.3,1.29,-9.89,-11.15,0,*49
1495490479.59,28788,18.0,74090.8,1.29,-9.75,-11.11,0,*41
1495490480.81,28789,18.06,74096.0,1.29,-9.67,-11.01,0,*42
1495490482.06,28790,18.06,74096.0,1.29,-9.41,-10.89,0,*4F
1495490483.3,28791,18.06,74094.3,1.29,-9.49,-10.85,0,*4A
1495490484.54,28792,18.06,74092.5,1.29,-9.61,-11.01,0,*4E
1495490485.78,28793,18.06,74096.5,1.29,-9.61,-11.01,0,*4F
1495490487.02,28794,18.0,74092.0,1.29,-9.61,-11.11,0,*49
1495490488.27,28795,18.06,74092.5,1.29,-9.53,-10.89,0,*49
1495490489.5,28796,18.06,74092.5,1.29,-9.49,-10.85,0,*4D
1495490490.75,28797,18.06,74090.0,1.31,-9.41,-10.71,0,*46
1495490492.01,28798,18.06,74092.8,1.31,-9.37,-10.79,0,*40
1495490493.22,28799,18.06,74090.8,1.31,-9.57,-10.85,0,*44
1495490494.47,28800,18.06,74092.8,1.31,-9.45,-10.79,0,*4B
1495490495.68,28801,18.0,74088.0,1.31,-9.57,-10.85,0,*4A
1495490496.89,28802,18.06,74090.3,1.31,-9.57,-10.93,0,*4E
1495490498.13,28803,18.0,74088.8,1.33,-9.61,-10.93,0,*48
1495490499.36,28804,18.06,74088.5,1.31,-9.75,-11.07,0,*44
1495490500.55,28805,18.06,74090.8,1.31,-9.97,-11.11,0,*4E
1495490501.74,28806,18.06,74090.8,1.31,-9.97,-11.23,0,*4C
1495490502.96,28807,18.0,74088.3,1.29,-10.01,-11.15,0,*76
1495490504.19,28808,18.06,74088.5,1.29,-10.01,-11.19,0,*75
1495490505.38,28809,18.06,74092.3,1.31,-10.01,-11.15,0,*71
1495490506.63,28810,18.06,74094.3,1.31,-9.83,-11.07,0,*48
1495490507.87,28811,18.0,74090.3,1.31,-9.83,-11.07,0,*49
1495490509.09,28812,18.0,74090.5,1.29,-10.05,-11.15,0,*76
1495490510.31,28813,18.0,74092.0,1.29,-10.01,-11.11,0,*77
1495490511.53,28814,18.06,74094.3,1.29,-9.93,-11.11,0,*43
1495490512.74,28815,18.0,74090.3,1.29,-9.93,-11.01,0,*43
1495490513.96,28816,18.06,74096.8,1.31,-9.97,-11.07,0,*4B
1495490515.18,28817,18.06,74094.8,1.29,-9.93,-11.11,0,*40
1495490516.37,28818,18.06,74092.8,1.31,-9.89,-10.93,0,*46
1495490517.59,28819,18.06,74094.0,1.31,-10.01,-11.07,0,*73
1495490518.81,28820,18.0,74090.5,1.33,-9.97,-10.97,0,*44
1495490520.02,28821,18.06,74094.3,1.31,-9.83,-10.85,0,*41
1495490521.29,28822,18.0,74092.0,1.33,-9.83,-10.79,0,*43
1495490522.51,28823,18.06,74094.5,1.33,-9.97,-10.97,0,*47
1495490523.69,28824,18.06,74092.5,1.31,-9.89,-10.85,0,*4E
1495490524.91,28825,18.0,74088.0,1.31,-10.09,-11.07,0,*74
1495490526.13,28826,18.06,74092.0,1.33,-10.09,-11.15,0,*76
1495490527.37,28827,18.0,74088.5,1.31,-10.15,-11.07,0,*7B
1495490528.55,28828,18.06,74092.5,1.31,-9.97,-10.85,0,*4D
1495490529.78,28829,18.0,74092.0,1.31,-10.01,-11.07,0,*70
1495490531.01,28830,18.06,74090.3,1.31,-10.15,-11.07,0,*7D
1495490532.24,28831,18.06,74092.8,1.31,-10.09,-11.07,0,*71
1495490533.48,28832,18.06,74088.5,1.33,-10.09,-11.07,0,*70
1495490534.71,28833,18.06,74092.0,1.33,-10.15,-11.11,0,*7B
1495490535.92,28834,18.06,74092.3,1.31,-10.15,-10.97,0,*71
1495490537.15,28835,18.06,74088.3,1.31,-10.23,-11.07,0,*7D
1495490538.36,28836,18.0,74086.5,1.31,-10.15,-10.97,0,*73
1495490539.57,28837,18.06,74090.0,1.31,-10.15,-10.93,0,*76
1495490540.77,28838,18.06,74088.3,1.31,-10.15,-10.93,0,*79
1495490541.97,28839,18.06,74088.5,1.31,-10.15,-10.85,0,*7F
1495490543.23,28840,18.0,74086.5,1.33,-10.15,-11.07,0,*78
1495490544.48,28841,18.06,74092.5,1.33,-10.27,-11.07,0,*78
1495490545.76,28842,18.06,74092.5,1.33,-10.41,-11.07,0,*7B
1495490547.0,28843,18.0,74088.8,1.31,-10.41,-10.97,0,*70
1495490548.28,28844,18.0,74090.3,1.33,-10.41,-11.07,0,*7D
1495490549.51,28845,18.0,74092.0,1.31,-10.41,-10.97,0,*76
1495490550.76,28846,18.0,74092.5,1.33,-10.31,-11.07,0,*78
1495490551.99,28847,18.0,74088.5,1.33,-10.45,-10.97,0,*72
1495490553.24,28848,18.06,74094.3,1.33,-10.57,-11.07,0,*76
1495490554.45,28849,18.06,74092.3,1.31,-10.53,-10.97,0,*79
1495490555.73,28850,18.0,74090.8,1.33,-10.71,-11.07,0,*7B
1495490557.0,28851,18.06,74090.5,1.33,-10.79,-11.07,0,*72
1495490558.25,28852,18.0,74090.5,1.33,-10.79,-11.11,0,*76
1495490559.45,28853,18.0,74088.3,1.31,-10.85,-11.15,0,*72
1495490560.65,28854,18.0,74088.3,1.31,-10.85,-11.15,0,*75
1495490561.85,28855,18.06,74092.5,1.31,-10.85,-11.15,0,*74
1495490563.06,28856,18.06,74092.3,1.31,-10.85,-10.97,0,*7C
1495490564.29,28857,18.0,74094.8,1.31,-10.85,-11.07,0,*75
1495490565.52,28858,18.0,74088.8,1.31,-10.85,-11.07,0,*7A
1495490566.74,28859,18.0,74092.3,1.29,-10.85,-10.97,0,*7A
1495490567.97,28860,18.0,74092.8,1.29,-10.89,-11.01,0,*72
1495490569.19,28861,18.0,74088.5,1.29,-10.89,-11.11,0,*72
1495490570.42,28862,18.0,74088.3,1.29,-10.89,-11.01,0,*70
1495490571.65,28863,18.0,74094.3,1.29,-10.85,-10.97,0,*73
1495490572.9,28864,18.0,74094.3,1.29,-10.75,-10.97,0,*7B
1495490574.13,28865,18.0,74092.8,1.29,-10.85,-10.97,0,*75
1495490575.38,28866,18.06,74098.3,1.29,-10.75,-10.89,0,*76
1495490576.64,28867,18.0,74094.8,1.27,-10.71,-10.75,0,*7E
1495490577.9,28868,18.0,74092.3,1.27,-10.71,-10.75,0,*71
1495490579.18,28869,18.0,74094.3,1.29,-10.75,-10.75,0,*7A
1495490580.37,28870,18.0,74094.3,1.27,-10.85,-10.85,0,*7C
1495490581.63,28871,18.06,74094.5,1.27,-10.71,-10.71,0,*7D
1495490582.83,28872,18.06,74098.3,1.27,-10.45,-10.49,0,*72
1495490584.03,28873,18.0,74092.0,1.27,-10.31,-10.45,0,*7C
1495490585.26,28874,18.06,74098.3,1.29,-10.27,-10.27,0,*76
1495490586.48,28875,18.06,74098.3,1.27,-10.19,-10.27,0,*74
1495490587.68,28876,18.0,74094.3,1.27,-10.05,-10.15,0,*7B
1495490588.88,28877,18.0,74096.0,1.27,-10.05,-10.15,0,*7A
1495490590.07,28878,18.06,74098.3,1.27,-9.93,-9.93,0,*74
1495490591.27,28879,18.0,74092.0,1.29,-9.89,-9.89,0,*7B
1495490592.46,28880,18.0,74092.3,1.27,-9.79,-9.89,0,*7C
1495490593.68,28881,18.0,74094.3,1.29,-9.79,-9.79,0,*7C
1495490594.9,28882,18.06,74096.3,1.29,-9.75,-9.79,0,*73
1495490596.09,28883,18.0,74092.3,1.27,-9.67,-9.79,0,*7F
1495490597.3,28884,18.0,74098.3,1.27,-9.53,-9.75,0,*73
1495490598.54,28885,18.06,74098.0,1.29,-9.53,-9.75,0,*7C
1495490599.78,28886,18.06,74096.0,1.29,-9.61,-9.79,0,*72
1495490601.02,28887,18.0,74094.0,1.29,-9.53,-9.75,0,*7E
1495490602.25,28888,18.0,74094.5,1.29,-9.53,-9.75,0,*71
1495490603.49,28889,18.0,74094.3,1.29,-9.53,-9.75,0,*70
1495490604.75,28890,18.06,74094.8,1.29,-9.49,-9.61,0,*76
1495490606.0,28891,18.0,74094.5,1.29,-9.41,-9.75,0,*7A
1495490607.24,28892,18.0,74094.3,1.31,-9.37,-9.61,0,*74
1495490608.46,28893,18.0,74094.0,1.31,-9.27,-9.57,0,*71
1495490609.68,28894,18.0,74094.5,1.31,-9.27,-9.61,0,*73
1495490610.89,28895,18.06,74094.8,1.31,-9.27,-9.57,0,*77
1495490612.11,28896,18.0,74090.8,1.31,-9.19,-9.57,0,*79
1495490613.32,28897,18.06,74094.8,1.31,-9.27,-9.61,0,*70
1495490614.52,28898,18.0,74092.8,1.31,-9.27,-9.71,0,*7E
1495490615.72,28899,18.06,74094.5,1.31,-9.19,-9.71,0,*72
1495490616.99,28900,18.0,74094.0,1.33,-9.15,-9.61,0,*7C
1495490618.22,28901,18.0,74090.3,1.31,-9.15,-9.71,0,*7E
1495490619.41,28902,18.0,74092.8,1.31,-9.19,-9.71,0,*71
1495490620.64,28903,18.0,74094.3,1.31,-9.15,-9.71,0,*7C
1495490621.86,28904,18.0,74094.0,1.31,-9.05,-9.61,0,*7B
1495490623.13,28905,18.0,74092.0,1.33,-9.15,-9.83,0,*75
1495490624.35,28906,18.0,74092.8,1.31,-8.89,-9.57,0,*79
1495490625.6,28907,18.06,74094.3,1.33,-8.89,-9.57,0,*7A
1495490626.82,28908,18.0,74094.0,1.31,-8.89,-9.61,0,*72
1495490628.06,28909,18.06,74094.3,1.33,-8.93,-9.57,0,*7F
1495490629.31,28910,18.0,74090.3,1.33,-8.93,-9.61,0,*72
1495490630.53,28911,18.0,74090.0,1.33,-8.89,-9.71,0,*79
1495490631.75,28912,18.0,74094.8,1.33,-8.93,-9.75,0,*75
1495490632.98,28913,18.06,74092.3,1.33,-8.89,-9.71,0,*7B
1495490634.17,28914,18.0,74088.0,1.35,-8.97,-9.71,0,*75
1495490635.36,28915,18.06,74094.0,1.35,-9.27,-10.09,0,*49
1495490636.56,28916,18.0,74094.0,1.35,-9.31,-10.23,0,*45
1495490637.75,28917,18.06,74098.0,1.35,-9.27,-10.05,0,*47
1495490639.01,28918,18.0,74092.3,1.37,-9.11,-10.01,0,*4B
1495490640.21,28919,18.06,74096.3,1.35,-9.01,-9.97,0,*7E
1495490641.43,28920,18.0,74090.3,1.35,-9.11,-10.09,0,*4A
1495490642.63,28921,18.06,74098.3,1.35,-9.27,-10.09,0,*4E
1495490643.85,28922,18.0,74092.0,1.37,-9.23,-10.05,0,*47
1495490645.1,28923,18.06,74094.5,1.37,-9.37,-10.19,0,*4E
1495490646.3,28924,18.0,74092.8,1.35,-9.31,-10.23,0,*44
1495490647.53,28925,18.0,74092.5,1.37,-9.23,-10.15,0,*41
1495490648.76,28926,18.0,74092.5,1.35,-9.41,-10.35,0,*46
1495490649.96,28927,18.0,74092.8,1.35,-9.31,-10.27,0,*43
1495490651.16,28928,18.06,74092.3,1.35,-9.31,-10.23,0,*48
1495490652.36,28929,18.0,74094.5,1.35,-9.31,-10.35,0,*4E
1495490653.56,28930,18.0,74092.3,1.35,-9.31,-10.27,0,*45
1495490654.81,28931,18.0,74094.0,1.37,-9.37,-10.31,0,*47
1495490656.07,28932,18.0,74092.0,1.37,-9.41,-10.31,0,*45
1495490657.28,28933,18.0,74092.3,1.35,-9.57,-10.49,0,*4E
1495490658.48,28934,18.0,74094.0,1.35,-9.31,-10.27,0,*41
1495490659.68,28935,18.0,74092.0,1.35,-9.31,-10.23,0,*44
1495490660.88,28936,18.0,74094.5,1.35,-9.31,-10.27,0,*43
1495490662.07,28937,18.0,74092.3,1.35,-9.31,-10.23,0,*46
1495490663.33,28938,18.0,74092.3,1.33,-9.37,-10.27,0,*4D
1495490664.61,28939,18.0,74094.0,1.33,-9.45,-10.41,0,*49
1495490665.83,28940,18.0,74092.3,1.33,-9.75,-10.57,0,*43
1495490667.07,28941,18.0,74090.3,1.33,-9.83,-10.45,0,*48
1495490668.26,28942,18.0,74092.3,1.35,-9.67,-10.49,0,*4B
1495490669.48,28943,18.0,74092.5,1.35,-9.67,-10.41,0,*42
1495490670.71,28944,18.06,74096.3,1.35,-9.53,-10.35,0,*41
1495490671.93,28945,18.06,74096.0,1.35,-9.41,-10.23,0,*44
1495490673.18,28946,18.06,74096.0,1.37,-9.41,-10.05,0,*41
1495490674.42,28947,18.0,74092.0,1.35,-9.15,-9.83,0,*75
1495490675.61,28948,18.06,74094.8,1.35,-9.27,-9.97,0,*7E
1495490676.83,28949,18.0,74094.5,1.35,-9.23,-9.83,0,*7E
1495490678.05,28950,18.0,74092.0,1.35,-9.41,-10.09,0,*48
1495490679.28,28951,18.0,74090.3,1.35,-9.37,-10.05,0,*44
1495490680.5,28952,18.0,74090.3,1.37,-9.27,-10.01,0,*40
1495490681.76,28953,18.0,74094.5,1.37,-9.41,-10.01,0,*41
1495490683.01,28954,18.0,74088.8,1.37,-9.41,-10.01,0,*46
1495490684.26,28955,18.0,74088.0,1.37,-9.37,-9.93,0,*75
1495490685.5,28956,18.0,74088.8,1.37,-9.49,-10.05,0,*48
1495490686.76,28957,18.0,74092.0,1.37,-9.41,-10.01,0,*45
1495490688.01,28958,18.0,74094.0,1.37,-9.49,-10.01,0,*42
1495490689.25,28959,18.0,74088.8,1.37,-9.49,-10.05,0,*47
1495490690.48,28960,18.0,74092.3,1.39,-9.61,-10.01,0,*4D
1495490691.69,28961,18.0,74088.3,1.39,-9.53,-9.93,0,*7E
1495490692.92,28962,18.0,74094.0,1.39,-9.41,-9.75,0,*76
1495490694.15,28963,18.0,74090.8,1.43,-9.57,-9.89,0,*7E
1495490695.39,28964,18.0,74094.0,1.43,-9.61,-9.97,0,*73
1495490696.6,28965,18.0,74092.8,1.39,-9.61,-9.89,0,*70
1495490697.79,28966,18.0,74092.5,1.39,-9.89,-10.05,0,*49
1495490698.99,28967,18.0,74090.5,1.39,-9.93,-10.05,0,*43
1495490700.21,28968,18.0,74090.3,1.43,-9.89,-10.01,0,*4E
1495490701.45,28969,18.0,74092.0,1.43,-9.83,-9.89,0,*7D
1495490702.64,28970,18.0,74092.5,1.39,-9.93,-9.93,0,*72
1495490703.85,28971,18.0,74092.8,1.43,-9.97,-9.97,0,*7E
1495490705.06,28972,18.0,74094.0,1.43,-9.97,-9.89,0,*72
1495490706.26,28973,18.0,74090.3,1.39,-9.79,-9.75,0,*7D
1495490707.45,28974,18.0,74094.3,1.39,-9.89,-9.67,0,*76
1495490708.68,28975,18.0,74094.8,1.43,-9.75,-9.57,0,*7A
1495490709.9,28976,18.0,74092.8,1.39,-9.89,-9.53,0,*73
1495490711.11,28977,18.0,74094.5,1.39,-9.89,-9.61,0,*73
1495490712.37,28978,18.0,74092.0,1.43,-9.83,-9.45,0,*7D
1495490713.64,28979,18.0,74092.8,1.43,-9.83,-9.45,0,*7C
1495490714.88,28980,18.0,74094.8,1.43,-9.97,-9.53,0,*78
1495490716.1,28981,18.0,74094.8,1.39,-10.01,-9.53,0,*43
1495490717.34,28982,18.0,74092.8,1.43,-9.97,-9.49,0,*71
1495490718.56,28983,18.0,74094.8,1.39,-9.93,-9.53,0,*72
1495490719.79,28984,18.0,74094.3,1.43,-9.89,-9.49,0,*78
1495490721.0,28985,18.0,74092.5,1.43,-9.75,-9.31,0,*75
1495490722.2,28986,18.0,74094.5,1.39,-9.79,-9.23,0,*74
1495490723.38,28987,18.0,74096.0,1.39,-9.89,-9.27,0,*7E
1495490724.6,28988,18.0,74098.0,1.39,-10.01,-9.37,0,*48
1495490725.79,28989,18.0,74096.5,1.39,-9.89,-9.27,0,*70
1495490727.02,28990,18.0,74096.8,1.43,-9.83,-9.23,0,*7B
1495490728.24,28991,18.0,74098.3,1.43,-9.71,-9.19,0,*7E
1495490729.48,28992,18.0,74096.8,1.43,-9.61,-9.01,0,*75
1495490730.68,28993,18.0,74098.8,1.39,-9.75,-9.05,0,*78
1495490731.9,28994,18.0,74092.8,1.43,-9.75,-9.01,0,*76
1495490733.16,28995,18.0,74096.0,1.43,-9.83,-9.15,0,*7B
1495490734.35,28996,18.0,74094.5,1.39,-9.75,-9.05,0,*7D
1495490735.55,28997,18.0,74092.3,1.39,-9.71,-8.93,0,*76
1495490736.75,28998,18.0,74092.8,1.39,-9.67,-8.85,0,*79
1495490737.98,28999,18.0,74094.8,1.43,-9.61,-8.75,0,*7C
1495490739.19,29000,18.0,74096.0,1.39,-9.53,-8.71,0,*7C
1495490740.4,29001,18.0,74092.5,1.43,-9.31,-8.55,0,*72
1495490741.6,29002,18.0,74096.5,1.39,-9.27,-8.37,0,*7F
1495490742.82,29003,18.0,74098.8,1.43,-9.19,-8.25,0,*7D
1495490744.04,29004,18.0,74096.8,1.43,-9.23,-8.41,0,*71
1495490745.27,29005,18.0,74092.5,1.43,-9.37,-8.55,0,*70
1495490746.49,29006,18.0,74096.0,1.43,-9.23,-8.41,0,*73
1495490747.71,29007,18.0,74094.5,1.39,-9.37,-8.55,0,*7F
1495490748.93,29008,18.0,74096.8,1.39,-9.37,-8.45,0,*71
1495490750.15,29009,18.0,74094.3,1.43,-9.31,-8.41,0,*7F
1495490751.37,29010,18.0,74096.5,1.39,-9.37,-8.45,0,*78
1495490752.58,29011,18.0,74096.3,1.43,-9.23,-8.33,0,*70
1495490753.83,29012,18.0,74098.5,1.43,-9.15,-8.25,0,*71
1495490755.05,29013,18.0,74096.3,1.43,-9.23,-8.25,0,*75
1495490756.27,29014,18.0,74092.5,1.43,-9.05,-8.21,0,*72
1495490757.5,29015,18.0,74098.5,1.39,-9.11,-8.17,0,*7E
1495490758.74,29016,18.0,74096.8,1.43,-8.93,-7.95,0,*7E
1495490759.99,29017,18.0,74098.3,1.43,-8.81,-7.83,0,*7B
1495490761.23,29018,18.0,74096.5,1.43,-8.89,-7.99,0,*77
1495490762.49,29019,18.0,74094.5,1.43,-8.89,-8.07,0,*7E
1495490763.74,29020,18.0,74098.3,1.43,-8.89,-7.95,0,*70
1495490764.96,29021,18.0,74098.3,1.45,-8.89,-7.95,0,*77
1495490766.18,29022,18.0,74094.5,1.45,-8.89,-7.95,0,*74
1495490767.42,29023,18.0,74096.5,1.45,-8.81,-7.95,0,*7D
1495490768.65,29024,18.0,74096.3,1.45,-8.89,-8.07,0,*76
1495490769.89,29025,18.0,74096.8,1.45,-8.89,-8.07,0,*77
1495490771.13,29026,18.0,74094.8,1.43,-8.89,-7.99,0,*7A
1495490772.38,29027,18.0,74098.3,1.45,-8.81,-8.07,0,*7D
1495490773.65,29028,18.0,74096.8,1.43,-8.81,-8.11,0,*73
1495490774.89,29029,18.0,74092.8,1.43,-8.63,-7.99,0,*71
1495490776.13,29030,18.0,74092.5,1.43,-8.67,-7.99,0,*7D
1495490777.38,29031,18.0,74094.5,1.43,-8.55,-7.95,0,*71
1495490778.62,29032,18.0,74098.5,1.43,-8.37,-7.73,0,*7E
1495490779.85,29033,18.0,74098.3,1.43,-8.37,-7.83,0,*70
1495490781.07,29034,18.0,74096.3,1.43,-8.37,-7.83,0,*77
1495490782.31,29035,18.0,74092.0,1.43,-8.25,-7.69,0,*71
1495490783.55,29036,18.0,74096.8,1.43,-8.33,-7.73,0,*7E
1495490784.79,29037,18.0,74096.5,1.43,-8.21,-7.69,0,*77
1495490786.07,29038,18.0,74092.0,1.43,-8.07,-7.61,0,*74
1495490787.34,29039,18.0,74096.0,1.43,-7.99,-7.61,0,*7D
1495490788.59,29040,18.0,74096.0,1.43,-7.73,-7.49,0,*7D
1495490789.83,29041,18.0,74096.0,1.43,-7.83,-7.57,0,*7C
1495490791.05,29042,18.0,74098.5,1.43,-7.83,-7.49,0,*70
1495490792.32,29043,18.0,74096.0,1.47,-7.69,-7.43,0,*7B
1495490793.57,29044,18.0,74098.5,1.45,-7.57,-7.39,0,*7E
1495490794.78,29045,18.0,74092.0,1.45,-7.49,-7.39,0,*70
1495490796.04,29046,18.0,74094.5,1.45,-7.57,-7.43,0,*71
1495490797.23,29047,18.0,74094.0,1.45,-7.49,-7.49,0,*75
1495490798.45,29048,18.0,74090.3,1.45,-7.49,-7.57,0,*75
1495490799.72,29049,18.0,74092.3,1.47,-7.43,-7.43,0,*79
1495490800.97,29050,18.0,74090.8,1.45,-7.35,-7.43,0,*72
1495490802.19,29051,18.0,74092.8,1.45,-7.19,-7.31,0,*78
1495490803.42,29052,18.0,74092.0,1.45,-7.19,-7.43,0,*7E
1495490804.64,29053,18.0,74094.5,1.45,-7.27,-7.49,0,*78
1495490805.86,29054,18.0,74092.5,1.45,-7.19,-7.39,0,*75
1495490807.08,29055,18.0,74094.5,1.47,-7.23,-7.53,0,*73
1495490808.31,29056,18.0,74092.0,1.45,-7.19,-7.61,0,*7A
1495490809.53,29057,18.0,74092.0,1.45,-7.15,-7.61,0,*77
1495490810.75,29058,18.0,74092.5,1.45,-6.89,-7.43,0,*7C
1495490811.97,29059,18.0,74094.0,1.45,-6.89,-7.39,0,*70
1495490813.2,29060,18.0,74092.3,1.45,-6.77,-7.31,0,*73
1495490814.44,29061,18.0,74092.3,1.47,-6.73,-7.35,0,*70
1495490815.66,29062,18.0,74094.8,1.45,-6.77,-7.57,0,*71
1495490816.88,29063,18.0,74090.8,1.47,-6.73,-7.53,0,*72
1495490818.12,29064,18.0,74092.0,1.47,-6.73,-7.65,0,*70
1495490819.37,29065,18.0,74092.0,1.47,-6.77,-7.69,0,*79
1495490820.59,29066,18.0,74092.3,1.45,-6.77,-7.69,0,*78
1495490821.82,29067,18.0,74088.5,1.45,-6.63,-7.69,0,*7C
1495490823.04,29068,18.0,74088.8,1.45,-6.69,-7.73,0,*72
1495490824.24,29069,18.0,74092.0,1.45,-6.77,-7.87,0,*77
1495490825.48,29070,18.0,74092.8,1.45,-6.63,-7.73,0,*71
1495490826.72,29071,18.0,74088.5,1.47,-6.63,-7.83,0,*7D
1495490827.97,29072,18.0,74092.0,1.47,-6.77,-7.95,0,*7C
1495490829.21,29073,18.0,74090.8,1.47,-6.77,-8.03,0,*7D
1495490830.43,29074,18.0,74092.3,1.47,-6.77,-8.17,0,*7F
1495490831.64,29075,18.0,74094.0,1.47,-6.85,-8.29,0,*7E
1495490832.86,29076,18.0,74090.0,1.47,-6.85,-8.37,0,*72
1495490834.08,29077,18.0,74092.3,1.47,-6.89,-8.45,0,*7A
1495490835.35,29078,18.0,74092.5,1.47,-7.01,-8.51,0,*71
1495490836.57,29079,18.0,74094.8,1.47,-6.85,-8.45,0,*78
1495490837.81,29080,18.0,74092.5,1.47,-6.85,-8.51,0,*7B
1495490839.05,29081,18.0,74094.3,1.47,-6.97,-8.63,0,*78
1495490840.27,29082,18.0,74096.3,1.47,-7.15,-8.85,0,*78
1495490841.5,29083,18.0,74098.3,1.47,-7.23,-8.89,0,*70
1495490842.74,29084,18.0,74092.0,1.45,-7.43,-9.15,0,*77
1495490844.01,29085,18.0,74092.0,1.47,-7.35,-9.15,0,*75
1495490845.23,29086,18.0,74094.8,1.45,-7.57,-9.23,0,*75
1495490846.44,29087,18.0,74096.8,1.45,-7.43,-9.23,0,*71
1495490847.66,29088,18.0,74092.0,1.45,-7.43,-9.23,0,*7E
1495490848.87,29089,18.0,74092.8,1.47,-7.53,-9.31,0,*7F
1495490850.14,29090,18.0,74092.8,1.47,-7.65,-9.41,0,*75
1495490851.39,29091,18.0,74096.5,1.45,-7.73,-9.57,0,*76
1495490852.59,29092,18.0,74098.3,1.45,-7.87,-9.71,0,*7A
1495490853.8,29093,18.0,74092.8,1.45,-7.91,-9.75,0,*78
1495490855.05,29094,18.0,74092.0,1.45,-8.07,-9.83,0,*76
1495490856.27,29095,18.0,74092.8,1.45,-8.07,-9.89,0,*7D
1495490857.5,29096,18.0,74094.0,1.47,-8.17,-10.09,0,*4D
1495490858.7,29097,18.0,74098.0,1.45,-8.25,-10.09,0,*4F
1495490859.9,29098,18.0,74094.3,1.45,-8.25,-10.09,0,*40
1495490861.1,29099,18.0,74096.3,1.45,-8.33,-10.15,0,*4B
1495490862.31,29100,18.0,74094.3,1.45,-8.33,-10.15,0,*4A
1495490863.52,29101,18.0,74094.0,1.45,-8.37,-10.15,0,*4F
1495490864.75,29102,18.0,74092.8,1.45,-8.51,-10.19,0,*40
1495490865.99,29103,18.0,74098.8,1.45,-8.51,-10.27,0,*4C
1495490867.19,29104,18.0,74094.8,1.45,-8.55,-10.27,0,*4F
1495490868.43,29105,18.0,74096.8,1.45,-8.67,-10.41,0,*4F
1495490869.63,29106,18.0,74092.5,1.45,-8.75,-10.31,0,*48
1495490870.91,29107,18.0,74096.5,1.43,-8.81,-10.41,0,*43
1495490872.17,29108,18.0,74096.5,1.43,-8.89,-10.41,0,*44
1495490873.43,29109,18.0,74092.8,1.43,-8.89,-10.41,0,*45
1495490874.68,29110,18.0,74098.5,1.43,-8.81,-10.31,0,*42
1495490875.92,29111,18.0,74094.8,1.43,-9.01,-10.31,0,*4A
1495490877.15,29112,18.0,74096.0,1.43,-9.05,-10.45,0,*4E
1495490878.37,29113,18.0,74096.0,1.43,-9.19,-10.53,0,*45
1495490879.63,29114,18.0,74098.3,1.43,-9.15,-10.53,0,*4E
1495490880.84,29115,18.0,74094.5,1.39,-9.23,-10.49,0,*4C
1495490882.04,29116,18.0,74096.5,1.39,-9.23,-10.49,0,*4F
1495490883.3,29117,18.0,74100.8,1.43,-9.19,-10.41,0,*42
1495490884.52,29118,18.0,74096.8,1.43,-9.31,-10.45,0,*43
1495490885.75,29119,18.0,74096.3,1.39,-9.41,-10.49,0,*44
1495490886.98,29120,18.0,74098.0,1.39,-9.41,-10.57,0,*41
1495490888.21,29121,18.0,74096.5,1.39,-9.49,-10.57,0,*48
1495490889.46,29122,18.0,74098.0,1.39,-9.61,-10.63,0,*46
1495490890.7,29123,18.0,74094.5,1.43,-9.61,-10.53,0,*49
1495490891.91,29124,18.0,74098.3,1.39,-9.71,-10.57,0,*46
1495490893.12,29125,18.0,74096.0,1.39,-9.89,-10.71,0,*44
1495490894.32,29126,18.0,74094.8,1.39,-9.75,-10.57,0,*40
1495490895.55,29127,18.0,74096.8,1.37,-9.75,-10.57,0,*4F
1495490896.77,29128,18.0,74092.3,1.37,-9.67,-10.49,0,*4C
1495490897.99,29129,18.0,74096.3,1.37,-9.67,-10.49,0,*4D
1495490899.21,29130,18.0,74100.0,1.37,-9.67,-10.35,0,*4E
1495490900.44,29131,18.0,74096.5,1.37,-9.79,-10.45,0,*47
1495490901.66,29132,18.0,74094.3,1.37,-9.79,-10.45,0,*44
1495490902.87,29133,18.0,74096.8,1.37,-9.89,-10.49,0,*46
1495490904.06,29134,18.0,74094.3,1.35,-9.93,-10.53,0,*43
1495490905.29,29135,18.0,74096.8,1.37,-9.79,-10.45,0,*43
1495490906.5,29136,18.0,74098.5,1.37,-9.89,-10.45,0,*4F
1495490907.71,29137,18.0,74094.0,1.37,-9.89,-10.45,0,*4E
1495490908.93,29138,18.0,74096.3,1.37,-9.93,-10.45,0,*4A
1495490910.15,29139,18.0,74096.5,1.37,-10.01,-10.45,0,*78
1495490911.37,29140,18.0,74092.5,1.37,-9.93,-10.49,0,*49
1495490912.59,29141,18.0,74094.0,1.37,-10.05,-10.49,0,*7F
1495490913.78,29142,18.0,74096.5,1.35,-10.05,-10.49,0,*7E
1495490915.0,29143,18.0,74098.0,1.37,-9.67,-10.23,0,*4D